Preview of NWS' New Version of Forecast
This preview is not operational and should not be used for support decisions.

Regional Weather Roundup (RWR)

Issued by Philadelphia/Mt Holly (PHI)

                            
000
ASUS41 KPHI 190112
RWRPHI

REGIONAL WEATHER ROUNDUP
NATIONAL WEATHER SERVICE MOUNT HOLLY NJ
800 PM EST FRI JAN 18 2019

NOTE:  "FAIR" INDICATES FEW OR NO CLOUDS BELOW 12,000 FEET WITH NO
SIGNIFICANT WEATHER AND/OR OBSTRUCTIONS TO VISIBILITY.

 * = STATION DOES NOT REPORT PRECIPITATION (E.G. RAIN, SNOW, ETC.) 
        OR FOG.

NJZ015>026-190200-
SOUTHERN NEW JERSEY
  
CITY           SKY/WX    TMP DP  RH WIND       PRES   REMARKS
POMONA         FAIR      33  33 100 W5        30.15R FOG     WCI  29  
WILDWOOD*      FAIR      34  32  92 NW3       30.17R                  
MILLVILLE      FAIR      29  28  96 W3        30.16R FOG              
MOUNT HOLLY    FAIR      28  26  92 SW3       30.16R FOG              
TRENTON        MOCLDY    32  30  92 SW3       30.13R FOG              

$$
NJZ001>014-190200-
NORTHERN NEW JERSEY
  
CITY           SKY/WX    TMP DP  RH WIND       PRES   REMARKS
SUSSEX         CLOUDY    31  29  92 CALM      30.10R                  
ANDOVER*         N/A     30  28  92 CALM      30.10R                  
MORRISTOWN     PTCLDY    30  30 100 CALM      30.12R                  
NEWARK         MOCLDY    34  29  82 W8        30.12R WCI  27          
TETERBORO      FAIR      34  30  85 VRB6      30.11R WCI  29          
CALDWELL       MOCLDY    31  30  96 CALM      30.12R                  
SOMERVILLE     MOCLDY    29  28  96 CALM      30.11R FOG              
ALLAIRE*       FAIR      31  29  92 W6        30.13R WCI  25          
TOMS RIVER*    FAIR      30  29  96 SW6       30.15R FOG     WCI  24  

$$
PAZ043-044-047-054-055-060>062-066>071-190200-
EASTERN PENNSYLVANIA
  
CITY           SKY/WX    TMP DP  RH WIND       PRES   REMARKS
PHILADELPHIA   CLOUDY    36  30  79 W7        30.17R WCI  30          
NORTH PHILA    MOCLDY    34  29  82 W7        30.16R HAZE    WCI  28  
BLUE BELL*     CLOUDY    32  32 100 CALM      30.16R                  
DOYLESTOWN     CLOUDY    31  28  89 SW3       30.13R                  
QUAKERTOWN*    MOCLDY    27  27 100 CALM      30.13R FOG              
PERKASIE*      MOCLDY    27  27 100 SW3       30.13R FOG              
POTTSTOWN      CLOUDY    31  30  96 CALM      30.16R FOG              
LANCASTER      CLOUDY    34  31  88 W6        30.14R FOG     WCI  29  
COATESVILLE    CLOUDY    32  30  93 W3        30.14S FOG              
READING        CLOUDY    34  32  92 CALM      30.13R                  
ALLENTOWN      CLOUDY    32  28  85 SW6       30.12R FOG     WCI  26  
MOUNT POCONO   CLOUDY    29  27  92 NW15G24   30.04R WCI  18          
HAZLETON       CLOUDY   N/A N/A N/A W6        30.11R HAZE             
LEHIGHTON      CLOUDY    36  30  80 W5        30.13R WCI  32          
WILKES BARRE   CLOUDY    33  27  78 N6        30.11R WCI  28          

$$
DEZALL-MDZ008-012-015-019-020-190200-
DELAWARE AND EASTERN MARYLAND
  
CITY           SKY/WX    TMP DP  RH WIND       PRES   REMARKS
WILMINGTON     CLOUDY    35  32  88 CALM      30.17R                  
DOVER          FAIR      34  31  90 W3        30.17R                  
GEORGETOWN     FAIR      33  29  85 CALM      30.17R FOG              
EASTON         PTCLDY    34  34 100 CALM      30.21R FOG              
ABERDEEN       CLOUDY    32  30  93 CALM      30.17R                  
PATUXENT       FAIR      34  34 100 SW5       30.17R FOG     WCI  30  
OCEAN CITY     FAIR      34  32  92 N5        30.17R WCI  30          
WALLOPS ISLAND FAIR      37  33  85 CALM      30.17R                  
CAMBRIDGE      CLEAR     30  30 100 CALM      30.17S FOG              
SALISBURY      FAIR      35  34  96 N5        30.16R WCI  31          

$$
PAZ001-021-NYZ056-072-MDZ011-DCZ001-190200-
OTHER NEARBY LOCATIONS
  
CITY           SKY/WX    TMP DP  RH WIND       PRES   REMARKS
HARRISBURG     CLOUDY    35  31  85 NW5       30.15R FOG     WCI  31  
STATE COLLEGE  CLOUDY    32  27  80 NW5       30.14S WCI  27          
WILLIAMSPORT   CLOUDY    33  29  85 W7        30.14S WCI  27          
BINGHAMTON     CLOUDY    27  19  72 W7        30.07S WCI  19          
NEW YORK CITY  FAIR      35  30  82 MISG      30.12R                  
BALTIMORE      CLOUDY    37  35  92 S3        30.17R                  
WASHINGTON DC  CLOUDY    38  34  85 E3        30.18R                  

$$